DW2589 Weather Reports


time (UTC)temp
C
wind
direction
speed
KPH
gust
KPH
rain 1hr
cm
rain 24hr
cm
rain mn
cm
humidity
%
barometer
mb
20260507081235 12 160 0.0 1.6 0.18 0.36 0.18 95 1006.7
20260507080739 12 251 0.0 3.2 0.15 0.33 0.15 95 1006.7
20260507080236 12 127 0.0 3.2 0.13 0.30 0.13 95 1006.4
20260507075736 12 127 0.0 3.2 0.10 0.28 0.10 95 1006.6
20260507075235 12 277 0.0 3.2 0.08 0.25 0.08 95 1006.7
20260507074736 13 86 0.0 3.2 0.00 0.18 0.00 96 1006.4
20260507074235 13 85 0.0 4.8 0.00 0.18 0.00 96 1005.9
20260507073737 13 135 0.0 4.8 0.00 0.18 0.00 96 1005.8
20260507073236 13 124 0.0 1.6 0.00 0.18 0.00 95 1005.7
20260507072737 13 124 0.0 1.6 0.00 0.18 0.00 96 1005.6
20260507072235 13 124 0.0 1.6 0.00 0.18 0.00 96 1005.7
20260507071731 13 124 0.0 1.6 0.00 0.18 0.00 96 1005.6
20260507071233 13 124 0.0 0.0 0.00 0.18 0.00 96 1005.7
20260507070731 13 124 0.0 0.0 0.00 0.18 0.00 97 1005.9
20260507070231 13 124 0.0 0.0 0.00 0.18 0.00 97 1005.7
20260507065730 13 132 0.0 0.0 0.00 0.18 0.00 96 1005.5
20260507065230 13 132 0.0 0.0 0.00 0.18 0.00 97 1005.5
20260507064729 14 132 0.0 0.0 0.00 0.18 0.00 97 1005.6
20260507064229 13 133 0.0 0.0 0.00 0.18 0.00 97 1005.8
20260507063729 13 133 0.0 0.0 0.00 0.18 0.00 97 1005.8
20260507063229 13 131 0.0 0.0 0.00 0.18 0.00 97 1005.8
20260507062727 13 131 0.0 0.0 0.00 0.18 0.00 97 1005.7
20260507062227 13 232 0.0 1.6 0.00 0.18 0.00 97 1005.9
20260507062019 13 232 0.0 1.6 0.00 0.18 0.00 97 1005.8
20260507061225 13 232 0.0 1.6 0.00 0.18 0.00 97 1005.8
20260507061021 13 232 0.0 3.2 0.00 0.18 0.00 97 1006.0
20260507060223 13 234 1.6 3.2 0.00 0.18 0.00 97 1006.2
20260507055722 13 242 1.6 3.2 0.00 0.18 0.00 97 1006.1
20260507055220 13 238 0.0 3.2 0.00 0.18 0.00 97 1006.0
20260507054720 13 169 1.6 4.8 0.00 0.18 0.00 97 1006.0
20260507054219 13 205 1.6 6.4 0.00 0.18 0.00 96 1006.1
20260507053722 13 214 1.6 6.4 0.00 0.18 0.00 97 1006.1
20260507053217 13 236 1.6 6.4 0.00 0.18 0.00 97 1006.1
20260507053017 13 209 0.0 4.8 0.00 0.18 0.00 96 1006.1
20260507052211 13 228 0.0 1.6 0.00 0.18 0.00 96 1006.2
20260507051706 13 238 0.0 4.8 0.00 0.18 0.00 96 1006.2
20260507051206 13 238 1.6 4.8 0.00 0.18 0.00 96 1006.4
20260507050705 13 237 3.2 9.7 0.00 0.18 0.00 96 1006.5
20260507050203 13 229 3.2 12.9 0.00 0.18 0.00 96 1006.5
20260507045703 13 247 3.2 12.9 0.00 0.18 0.00 96 1006.5
20260507045203 13 228 3.2 6.4 0.00 0.18 0.00 96 1006.3
20260507044703 13 243 3.2 6.4 0.00 0.18 0.00 96 1006.2
20260507044201 13 231 3.2 6.4 0.00 0.18 0.00 96 1006.2
20260507043702 13 229 3.2 6.4 0.00 0.18 0.00 96 1006.2
20260507043201 13 236 3.2 6.4 0.00 0.18 0.00 96 1006.2
20260507042703 13 138 3.2 4.8 0.00 0.18 0.00 96 1006.2
20260507042159 13 219 3.2 6.4 0.00 0.18 0.00 96 1006.3
20260507041659 13 229 3.2 6.4 0.00 0.18 0.00 96 1006.2
20260507041448 13 219 4.8 9.7 0.00 0.18 0.00 96 1006.3
20260507040658 13 217 4.8 9.7 0.00 0.18 0.00 96 1006.3
20260507040231 13 204 4.8 12.9 0.00 0.18 0.00 96 1006.3
20260507035153 13 210 4.8 12.9 0.00 0.18 0.18 96 1006.7
20260507034946 13 230 4.8 11.3 0.00 0.18 0.18 96 1006.7
20260507034143 13 255 4.8 9.7 0.00 0.18 0.18 96 1006.6
20260507033643 13 224 4.8 12.9 0.00 0.18 0.18 96 1006.4
20260507033435 13 229 4.8 16.1 0.00 0.18 0.18 96 1006.4
20260507032644 13 214 4.8 16.1 0.00 0.18 0.18 96 1006.3
20260507032143 13 287 4.8 12.9 0.00 0.18 0.18 96 1006.3
20260507031642 13 219 4.8 16.1 0.00 0.18 0.18 96 1006.4
20260507031139 13 212 4.8 17.7 0.00 0.18 0.18 96 1006.1
20260507030640 13 233 4.8 17.7 0.00 0.18 0.18 96 1006.2
20260507030137 13 229 4.8 14.5 0.00 0.18 0.18 96 1006.1
20260507025637 13 219 6.4 14.5 0.00 0.18 0.18 96 1006.1
20260507025432 13 240 6.4 14.5 0.00 0.18 0.18 96 1006.0
20260507024638 13 221 4.8 12.9 0.00 0.18 0.18 96 1005.9
20260507024138 13 231 6.4 12.9 0.00 0.18 0.18 96 1006.0
20260507023635 13 245 6.4 20.9 0.00 0.18 0.18 96 1005.9
20260507023423 13 195 6.4 20.9 0.00 0.18 0.18 96 1006.0
20260507022926 13 221 4.8 14.5 0.00 0.18 0.18 96 1006.0
20260507022132 13 154 4.8 20.9 0.00 0.18 0.18 96 1006.1
20260507021926 13 146 6.4 20.9 0.00 0.18 0.18 96 1006.0
20260507021135 13 243 4.8 14.5 0.00 0.18 0.18 96 1006.3
20260507020631 13 240 4.8 14.5 0.00 0.18 0.18 96 1006.1
20260507020134 13 214 6.4 14.5 0.00 0.18 0.18 96 1006.4
20260507015630 13 245 4.8 14.5 0.00 0.18 0.18 96 1006.6
20260507015130 13 195 4.8 12.9 0.00 0.18 0.18 96 1006.6
20260507014629 13 193 4.8 12.9 0.00 0.18 0.18 96 1006.6
20260507014128 13 231 6.4 14.5 0.00 0.18 0.18 96 1006.7
20260507013919 13 214 4.8 14.5 0.00 0.18 0.18 96 1006.6
20260507013130 13 221 4.8 14.5 0.00 0.18 0.18 96 1006.6
20260507012925 13 144 6.4 17.7 0.00 0.18 0.18 96 1006.7
20260507012130 13 190 6.4 17.7 0.00 0.18 0.18 96 1006.8
20260507011927 13 229 4.8 16.1 0.03 0.18 0.18 96 1006.7
20260507011132 13 205 4.8 16.1 0.03 0.18 0.18 96 1006.8
20260507010629 13 250 6.4 17.7 0.05 0.18 0.18 96 1006.6
20260507010128 13 186 6.4 17.7 0.08 0.18 0.18 96 1006.7
20260507005631 13 248 6.4 19.3 0.08 0.18 0.18 96 1006.7
20260507005126 13 249 6.4 19.3 0.08 0.18 0.18 96 1006.6
20260507004912 13 216 6.4 19.3 0.08 0.18 0.18 96 1006.8
20260507004115 13 205 6.4 14.5 0.08 0.18 0.18 96 1006.8
20260507003612 13 233 6.4 19.3 0.08 0.18 0.18 96 1006.8
20260507003112 13 191 8.0 20.9 0.08 0.18 0.18 96 1006.9
20260507002609 13 198 8.0 20.9 0.08 0.18 0.18 96 1006.7
20260507002111 13 171 6.4 19.3 0.08 0.18 0.18 95 1006.7
20260507001609 14 136 4.8 19.3 0.05 0.15 0.15 95 1006.6
20260507001110 14 249 4.8 12.9 0.03 0.13 0.13 95 1006.6
20260507000903 14 193 6.4 19.3 0.03 0.13 0.13 95 1006.6
20260507000108 14 229 8.0 19.3 0.00 0.10 0.10 95 1006.6
20260506235605 14 125 6.4 19.3 0.03 0.10 0.10 95 1006.7
20260506235106 14 198 6.4 17.7 0.03 0.10 0.10 95 1006.6
20260506234605 14 212 4.8 12.9 0.03 0.10 0.10 95 1006.7
20260506234104 14 181 6.4 24.1 0.03 0.10 0.10 95 1006.4
20260506233603 14 162 8.0 24.1 0.05 0.10 0.10 95 1006.8
20260506233409 14 233 8.0 24.1 0.05 0.10 0.10 95 1006.8
20260506232606 14 208 8.0 19.3 0.05 0.10 0.10 95 1006.9
20260506232358 14 205 6.4 17.7 0.05 0.10 0.10 95 1006.9
20260506231603 14 92 6.4 14.5 0.08 0.10 0.10 95 1006.8
20260506231105 14 252 4.8 19.3 0.08 0.10 0.10 94 1006.8
20260506230606 14 239 6.4 19.3 0.08 0.10 0.10 94 1006.8
20260506230057 14 260 6.4 17.7 0.08 0.10 0.10 94 1006.8
20260506225845 14 204 4.8 17.7 0.05 0.08 0.08 94 1006.8
20260506225046 14 211 4.8 25.7 0.05 0.08 0.08 94 1006.9
20260506224542 14 170 6.4 25.7 0.05 0.08 0.08 94 1006.9
20260506224042 14 127 6.4 19.3 0.05 0.08 0.08 93 1007.2
20260506223542 14 229 4.8 19.3 0.03 0.05 0.05 93 1007.3
20260506223042 14 148 4.8 19.3 0.03 0.05 0.05 93 1007.3
20260506222542 15 157 6.4 14.5 0.03 0.05 0.05 92 1007.2
20260506222046 15 244 6.4 14.5 0.03 0.05 0.05 92 1007.4
20260506221546 15 151 6.4 19.3 0.00 0.03 0.03 92 1007.4
20260506221119 15 242 8.0 20.9 0.00 0.03 0.03 91 1007.4
20260506220046 15 177 4.8 17.7 0.00 0.03 0.03 91 1007.4
20260506215543 15 176 6.4 17.7 0.00 0.03 0.03 91 1007.4
20260506215121 15 253 6.4 24.1 0.00 0.03 0.03 91 1007.3
20260506214041 15 223 6.4 19.3 0.00 0.03 0.03 90 1007.3
20260506213539 15 231 4.8 17.7 0.00 0.03 0.03 90 1007.4
20260506213040 15 183 6.4 24.1 0.00 0.03 0.03 89 1007.5
20260506212537 15 191 8.0 24.1 0.00 0.03 0.03 89 1007.4
20260506212038 15 225 6.4 19.3 0.00 0.03 0.03 89 1007.6
20260506211536 15 225 6.4 24.1 0.00 0.03 0.03 89 1007.6
20260506211037 15 220 8.0 24.1 0.03 0.03 0.03 90 1007.7
20260506210842 15 245 8.0 24.1 0.03 0.03 0.03 90 1007.7
20260506210036 15 33 6.4 24.1 0.03 0.03 0.03 90 1007.7
20260506205537 15 224 6.4 22.5 0.03 0.03 0.03 90 1007.8
20260506205333 15 249 6.4 22.5 0.03 0.03 0.03 90 1007.8
20260506204536 15 237 6.4 20.9 0.03 0.03 0.03 90 1007.8
20260506204416 15 226 6.4 20.9 0.03 0.03 0.03 90 1007.7
20260506203036 15 175 8.0 22.5 0.03 0.03 0.03 90 1007.9
20260506202537 15 174 9.7 19.3 0.03 0.03 0.03 89 1007.7
20260506202036 15 231 6.4 19.3 0.03 0.03 0.03 89 1007.8
20260506201537 16 196 6.4 25.7 0.03 0.03 0.03 88 1008.0
20260506201038 16 169 6.4 25.7 0.00 0.00 0.00 87 1008.0
20260506200912 16 207 6.4 17.7 0.00 0.00 0.00 86 1008.0
20260506195538 16 230 8.0 20.9 0.00 0.00 0.00 84 1008.1
20260506195039 17 261 8.0 25.7 0.00 0.00 0.00 82 1008.3
20260506194537 17 212 8.0 25.7 0.00 0.00 0.00 81 1008.1
20260506194037 17 229 6.4 22.5 0.00 0.00 0.00 79 1008.2
20260506193536 17 233 8.0 25.7 0.00 0.00 0.00 78 1008.2
20260506193326 17 246 11.3 25.7 0.00 0.00 0.00 78 1008.2
20260506192536 17 141 9.7 22.5 0.00 0.00 0.00 78 1008.4
20260506192036 18 226 8.0 20.9 0.00 0.00 0.00 77 1008.2
20260506191535 18 215 6.4 20.9 0.00 0.00 0.00 77 1008.2
20260506191032 18 46 8.0 25.7 0.00 0.00 0.00 77 1008.2
20260506190532 18 209 9.7 25.7 0.00 0.00 0.00 77 1007.9
20260506190318 18 146 8.0 22.5 0.00 0.00 0.00 77 1008.0
20260506185530 18 219 6.4 22.5 0.00 0.00 0.00 76 1008.2
20260506185030 18 153 6.4 19.3 0.00 0.00 0.00 76 1008.3
20260506184530 18 219 8.0 29.0 0.00 0.00 0.00 76 1008.2
20260506184029 18 248 8.0 29.0 0.00 0.00 0.00 75 1008.4
20260506183532 18 255 8.0 22.5 0.00 0.00 0.00 75 1008.3
20260506183028 18 162 8.0 24.1 0.00 0.00 0.00 74 1008.5
20260506182532 19 44 8.0 24.1 0.00 0.00 0.00 74 1008.4
20260506182026 19 198 8.0 22.5 0.00 0.00 0.00 73 1008.4
20260506181817 19 284 8.0 22.5 0.00 0.00 0.00 73 1008.4
20260506181026 19 110 9.7 22.5 0.00 0.00 0.00 72 1008.8
20260506180526 20 218 11.3 30.6 0.00 0.00 0.00 71 1008.8
20260506180025 20 248 9.7 35.4 0.00 0.00 0.00 70 1008.8
20260506175525 20 185 9.7 35.4 0.00 0.00 0.00 71 1009.0
20260506175024 20 234 8.0 20.9 0.00 0.00 0.00 70 1008.8
20260506174523 20 222 6.4 16.1 0.00 0.00 0.00 70 1009.0
20260506174022 20 269 8.0 24.1 0.00 0.00 0.00 69 1009.1
20260506173522 21 207 9.7 24.1 0.00 0.00 0.00 70 1008.9
20260506173021 21 248 9.7 24.1 0.00 0.00 0.00 69 1008.9
20260506172815 21 206 6.4 19.3 0.00 0.00 0.00 69 1008.9
20260506172021 20 228 6.4 14.5 0.00 0.00 0.00 71 1008.7
20260506171549 20 262 8.0 22.5 0.00 0.00 0.00 71 1008.9
20260506170518 20 213 8.0 32.2 0.00 0.00 0.00 70 1009.0
20260506170315 20 266 8.0 32.2 0.00 0.00 0.00 70 1009.2
20260506165807 20 209 6.4 19.3 0.00 0.00 0.00 69 1009.2
20260506165015 20 200 8.0 32.2 0.00 0.00 0.00 70 1009.1
20260506164514 20 217 8.0 32.2 0.00 0.00 0.00 69 1009.2
20260506164014 20 225 9.7 24.1 0.00 0.00 0.00 69 1009.2
20260506163512 20 229 8.0 24.1 0.00 0.00 0.00 69 1009.3
20260506163012 20 166 6.4 16.1 0.00 0.00 0.00 69 1009.4
20260506162807 20 241 6.4 20.9 0.00 0.00 0.00 69 1009.3
20260506162012 20 189 8.0 20.9 0.00 0.00 0.00 69 1009.3
20260506161511 20 229 9.7 37.0 0.00 0.00 0.00 69 1009.5
20260506161046 20 238 9.7 37.0 0.00 0.00 0.00 68 1009.7
20260506160512 20 220 6.4 19.3 0.00 0.00 0.00 70 1009.7
20260506160301 20 246 6.4 19.3 0.00 0.00 0.00 69 1009.8
20260506155508 21 259 8.0 19.3 0.00 0.00 0.00 70 1009.6
20260506155008 20 226 9.7 30.6 0.00 0.00 0.00 70 1009.7
20260506154508 20 217 8.0 30.6 0.00 0.00 0.00 68 1010.4
20260506154008 21 229 6.4 19.3 0.00 0.00 0.00 68 1010.1
20260506153511 21 158 4.8 19.3 0.00 0.00 0.00 68 1010.2
20260506153008 21 186 4.8 9.7 0.00 0.00 0.00 68 1010.3
20260506152508 21 242 4.8 19.3 0.00 0.00 0.00 68 1010.4
20260506152009 21 240 6.4 19.3 0.00 0.00 0.00 69 1010.2
20260506151758 21 238 8.0 25.7 0.00 0.00 0.00 68 1010.2
20260506151012 20 227 9.7 25.7 0.00 0.00 0.00 69 1010.2
20260506150506 20 192 9.7 25.7 0.00 0.00 0.00 69 1010.3
20260506150005 20 245 11.3 29.0 0.00 0.00 0.00 68 1010.2
20260506145504 20 246 9.7 29.0 0.00 0.00 0.00 69 1010.3
20260506145305 20 203 6.4 22.5 0.00 0.00 0.00 68 1009.9
20260506144502 21 142 6.4 22.5 0.00 0.00 0.00 67 1010.0
20260506143958 21 259 6.4 19.3 0.00 0.00 0.00 67 1009.9
20260506143459 21 248 6.4 19.3 0.00 0.00 0.00 69 1009.9
20260506142957 20 217 6.4 16.1 0.00 0.00 0.00 69 1010.3
20260506142459 20 170 6.4 16.1 0.00 0.00 0.00 69 1009.9
20260506142039 20 197 6.4 20.9 0.00 0.00 0.00 69 1010.0
20260506141003 20 167 8.0 22.5 0.00 0.00 0.00 70 1009.7
20260506140457 20 158 8.0 22.5 0.00 0.00 0.00 70 1010.1
20260506140252 20 231 4.8 17.7 0.00 0.00 0.00 71 1010.3
20260506135504 20 141 4.8 9.7 0.00 0.00 0.00 71 1010.4
20260506134958 20 198 4.8 14.5 0.00 0.00 0.00 72 1010.7
20260506134758 20 253 4.8 14.5 0.00 0.00 0.00 73 1011.0
20260506134004 19 172 4.8 22.5 0.00 0.00 0.00 76 1011.0
20260506133755 18 165 8.0 32.2 0.00 0.00 0.00 76 1010.9
20260506132959 18 221 6.4 32.2 0.00 0.00 0.00 76 1010.9
20260506132455 18 250 6.4 20.9 0.00 0.00 0.00 77 1010.7
20260506131953 18 129 6.4 20.9 0.00 0.00 0.00 77 1010.9
20260506131449 17 221 4.8 14.5 0.00 0.00 0.00 79 1010.7
20260506130944 17 193 4.8 14.5 0.00 0.00 0.00 80 1011.0
20260506130436 17 219 6.4 20.9 0.00 0.00 0.00 80 1011.0
20260506125935 17 162 8.0 20.9 0.00 0.00 0.00 80 1010.8
20260506125434 17 222 6.4 17.7 0.00 0.00 0.00 81 1010.9
20260506124932 16 226 6.4 17.7 0.00 0.00 0.00 82 1010.8
20260506124434 16 219 8.0 20.9 0.00 0.00 0.00 82 1010.8
20260506123932 16 229 6.4 22.5 0.00 0.00 0.00 83 1010.6
20260506123434 16 235 6.4 24.1 0.00 0.00 0.00 82 1010.6
20260506122931 16 235 6.4 24.1 0.00 0.00 0.00 84 1010.6
20260506122729 16 128 4.8 17.7 0.00 0.00 0.00 84 1011.0
20260506121931 16 143 4.8 17.7 0.00 0.00 0.00 85 1011.1
20260506121434 16 236 4.8 12.9 0.00 0.00 0.00 85 1011.1
20260506121008 16 238 6.4 20.9 0.00 0.00 0.00 85 1011.2
20260506120226 16 177 8.0 20.9 0.00 0.00 0.00 85 1011.1
20260506115737 15 226 8.0 20.9 0.00 0.00 0.00 85 1011.3
20260506114934 15 224 6.4 19.3 0.00 0.00 0.00 86 1011.5
20260506114432 15 131 6.4 24.1 0.00 0.00 0.00 87 1011.5
20260506113924 15 221 6.4 24.1 0.00 0.00 0.00 87 1011.4
20260506113417 15 240 6.4 17.7 0.00 0.00 0.00 87 1011.3
20260506112913 15 233 6.4 19.3 0.00 0.00 0.00 87 1011.3
20260506112404 15 226 6.4 19.3 0.00 0.00 0.00 87 1011.3
20260506111904 15 204 6.4 17.7 0.00 0.00 0.00 87 1011.2
20260506111403 15 248 6.4 17.7 0.00 0.00 0.00 88 1011.2
20260506110901 15 202 6.4 16.1 0.00 0.00 0.00 88 1011.3
20260506110657 15 210 6.4 16.1 0.00 0.00 0.00 88 1011.3
20260506105905 15 249 6.4 19.3 0.00 0.00 0.00 88 1011.4
20260506105405 15 243 6.4 19.3 0.00 0.00 0.00 88 1011.4
20260506104901 15 205 6.4 20.9 0.00 0.00 0.00 88 1011.4
20260506104401 15 136 8.0 20.9 0.00 0.00 0.00 88 1011.5
20260506103901 15 162 6.4 14.5 0.00 0.00 0.00 88 1011.3
20260506103402 15 121 6.4 14.5 0.00 0.00 0.00 88 1011.4
20260506102902 15 217 6.4 14.5 0.00 0.00 0.00 88 1011.3
20260506102703 15 239 6.4 20.9 0.00 0.00 0.00 88 1011.2
20260506101901 15 270 6.4 20.9 0.00 0.00 0.00 88 1011.2
20260506101401 15 198 6.4 25.7 0.00 0.00 0.00 88 1011.2
20260506100901 15 258 8.0 25.7 0.00 0.00 0.00 88 1011.1
20260506100401 15 236 8.0 22.5 0.00 0.00 0.00 88 1011.1
20260506095902 15 208 6.4 20.9 0.00 0.00 0.00 88 1011.0
20260506095401 15 221 6.4 17.7 0.00 0.00 0.00 88 1011.0
20260506094902 15 174 6.4 16.1 0.00 0.00 0.00 88 1011.0
20260506094657 15 189 6.4 17.7 0.00 0.00 0.00 88 1011.1
20260506094156 15 233 4.8 17.7 0.00 0.00 0.00 88 1010.9
20260506093401 15 227 6.4 17.7 0.00 0.00 0.00 87 1011.0
20260506092901 15 153 6.4 17.7 0.00 0.00 0.00 87 1011.0
20260506092401 15 216 6.4 22.5 0.00 0.00 0.00 87 1011.0
20260506091901 15 267 8.0 22.5 0.00 0.00 0.00 87 1010.9
20260506091700 15 160 8.0 20.9 0.00 0.00 0.00 87 1011.1
20260506091203 15 208 8.0 22.5 0.00 0.00 0.00 87 1010.8
20260506090403 15 251 6.4 22.5 0.00 0.00 0.00 86 1010.9
20260506085902 15 269 6.4 17.7 0.00 0.00 0.00 87 1011.0
20260506085655 15 216 6.4 17.7 0.00 0.00 0.00 87 1011.2
20260506084902 15 229 8.0 24.1 0.00 0.00 0.00 86 1011.1
20260506084656 15 257 8.0 24.1 0.00 0.00 0.00 86 1011.2
20260506083902 15 218 6.4 22.5 0.00 0.00 0.00 86 1011.1
20260506083402 15 228 8.0 22.5 0.00 0.00 0.00 86 1011.1
20260506082905 15 224 6.4 17.7 0.00 0.00 0.00 86 1011.1
20260506082654 15 229 8.0 17.7 0.00 0.00 0.00 86 1011.1